When you browse on this site, cookies collect data to enhance your experience and personalize the content and advertising you see.
Visit our Privacy Policy to learn more. By continuing to use the site, you agree to this use of cookies and data.
  • In United Kingdom
  • List of Countries
  • For 7 days
  • Water Temperature
  • Satellite Maps
  • Weather Map
  • Weather Widgets
  • user-avatar
    Login

    Hourly Weather Pechykhvosty

    Today, 25 June, Tuesday

    Time Temperature Precipitation Wind Pressure Humidity
    00:00 +19°C° 0 mm 2 mps 748 mmHg 95%
    01:00 +18°C° 0 mm 2 mps 748 mmHg 96%
    02:00 +18°C° 0 mm 2 mps 748 mmHg 96%
    03:00 +18°C° 0 mm 2 mps 748 mmHg 96%
    04:00 +18°C° 0 mm 2 mps 748 mmHg 97%
    05:00 +18°C° 0 mm 2 mps 748 mmHg 97%
    06:00 +19°C° 0 mm 2 mps 749 mmHg 95%
    07:00 +20°C° 0 mm 3 mps 749 mmHg 92%
    08:00 +22°C° 0 mm 3 mps 750 mmHg 89%
    09:00 +24°C° 0 mm 3 mps 750 mmHg 84%
    10:00 +25°C° 0 mm 3 mps 750 mmHg 80%
    11:00 +26°C° 0 mm 3 mps 750 mmHg 75%
    12:00 +26°C° 0 mm 4 mps 750 mmHg 73%
    13:00 +27°C° 0 mm 4 mps 750 mmHg 70%
    14:00 +27°C° 0 mm 4 mps 750 mmHg 68%
    15:00 +27°C° 0 mm 4 mps 750 mmHg 68%
    16:00 +27°C° 0 mm 3 mps 749 mmHg 68%
    17:00 +26°C° 0 mm 3 mps 749 mmHg 68%
    18:00 +25°C° 0 mm 3 mps 749 mmHg 72%
    19:00 +24°C° 0 mm 2 mps 749 mmHg 77%
    20:00 +21°C° 0 mm 2 mps 749 mmHg 81%
    21:00 +20°C° 0 mm 2 mps 749 mmHg 84%
    22:00 +19°C° 0 mm 2 mps 749 mmHg 87%
    23:00 +18°C° 0 mm 2 mps 749 mmHg 90%

    Tomorrow, 26 June, Wednesday

    Time Temperature Precipitation Wind Pressure Humidity
    00:00 +18°C° 0 mm 2 mps 749 mmHg 91%
    01:00 +17°C° 0 mm 2 mps 750 mmHg 92%
    02:00 +17°C° 0 mm 2 mps 750 mmHg 93%
    03:00 +17°C° 0 mm 2 mps 749 mmHg 93%
    04:00 +17°C° 0 mm 2 mps 749 mmHg 94%
    05:00 +17°C° 0 mm 2 mps 748 mmHg 94%
    06:00 +19°C° 0 mm 2 mps 749 mmHg 90%
    07:00 +20°C° 0 mm 3 mps 749 mmHg 86%
    08:00 +22°C° 0 mm 3 mps 749 mmHg 82%
    09:00 +24°C° 0 mm 3 mps 749 mmHg 79%
    10:00 +25°C° 0 mm 4 mps 749 mmHg 76%
    11:00 +26°C° 0 mm 4 mps 748 mmHg 72%
    12:00 +27°C° 0 mm 4 mps 748 mmHg 68%
    13:00 +28°C° 0 mm 3 mps 748 mmHg 64%
    14:00 +29°C° 0 mm 3 mps 748 mmHg 60%
    15:00 +29°C° 0 mm 3 mps 747 mmHg 62%
    16:00 +29°C° 0 mm 2 mps 747 mmHg 63%
    17:00 +29°C° 0 mm 2 mps 746 mmHg 64%
    18:00 +27°C° 0 mm 2 mps 746 mmHg 71%
    19:00 +26°C° 0 mm 3 mps 745 mmHg 78%
    20:00 +24°C° 0 mm 3 mps 745 mmHg 84%
    21:00 +22°C° 0 mm 3 mps 744 mmHg 87%
    22:00 +22°C° 0 mm 3 mps 744 mmHg 89%
    23:00 +21°C° 0 mm 3 mps 744 mmHg 91%

    Day after tomorrow, 27 June, Thursday

    Time Temperature Precipitation Wind Pressure Humidity
    00:00 +21°C° 0 mm 3 mps 743 mmHg 89%
    01:00 +21°C° 0 mm 4 mps 743 mmHg 88%
    02:00 +21°C° 0 mm 4 mps 743 mmHg 86%
    03:00 +21°C° 0 mm 4 mps 742 mmHg 86%
    04:00 +22°C° 0 mm 4 mps 741 mmHg 87%
    05:00 +22°C° 0 mm 5 mps 741 mmHg 87%
    06:00 +23°C° 0.5 mm 5 mps 741 mmHg 87%
    07:00 +23°C° 0.5 mm 6 mps 740 mmHg 86%
    08:00 +24°C° 0.5 mm 6 mps 740 mmHg 86%
    09:00 +26°C° 0.7 mm 7 mps 740 mmHg 85%
    10:00 +26°C° 0.7 mm 7 mps 740 mmHg 83%
    11:00 +26°C° 0.7 mm 8 mps 740 mmHg 82%
    12:00 +26°C° 0.3 mm 8 mps 740 mmHg 77%
    13:00 +26°C° 0.3 mm 8 mps 740 mmHg 72%
    14:00 +26°C° 0.3 mm 8 mps 740 mmHg 67%
    15:00 +24°C° 0.1 mm 8 mps 740 mmHg 68%
    16:00 +24°C° 0.1 mm 7 mps 739 mmHg 70%
    17:00 +23°C° 0.1 mm 7 mps 739 mmHg 71%
    18:00 +22°C° 0 mm 6 mps 739 mmHg 74%
    19:00 +21°C° 0 mm 5 mps 739 mmHg 77%
    20:00 +19°C° 0 mm 5 mps 739 mmHg 81%
    21:00 +17°C° 0 mm 5 mps 739 mmHg 82%
    22:00 +16°C° 0 mm 5 mps 739 mmHg 83%
    23:00 +16°C° 0 mm 5 mps 740 mmHg 85%

    28 June, Friday

    Time Temperature Precipitation Wind Pressure Humidity
    00:00 +15°C° 0 mm 4 mps 740 mmHg 88%
    01:00 +15°C° 0 mm 4 mps 740 mmHg 90%
    02:00 +14°C° 0 mm 4 mps 740 mmHg 93%
    03:00 +13°C° 0 mm 4 mps 740 mmHg 93%
    04:00 +13°C° 0 mm 4 mps 740 mmHg 92%
    05:00 +12°C° 0 mm 4 mps 740 mmHg 92%
    06:00 +12°C° 0 mm 5 mps 740 mmHg 86%
    07:00 +13°C° 0 mm 5 mps 741 mmHg 81%
    08:00 +14°C° 0 mm 6 mps 741 mmHg 75%
    09:00 +15°C° 0 mm 7 mps 741 mmHg 71%
    10:00 +16°C° 0 mm 7 mps 741 mmHg 66%
    11:00 +17°C° 0 mm 7 mps 741 mmHg 62%
    12:00 +17°C° 0.1 mm 7 mps 741 mmHg 63%
    13:00 +17°C° 0.1 mm 7 mps 741 mmHg 65%
    14:00 +18°C° 0.1 mm 7 mps 741 mmHg 66%
    15:00 +18°C° 0.2 mm 8 mps 741 mmHg 67%
    16:00 +18°C° 0.2 mm 8 mps 741 mmHg 69%
    17:00 +18°C° 0.2 mm 8 mps 741 mmHg 70%
    18:00 +17°C° 0.1 mm 7 mps 741 mmHg 73%
    19:00 +16°C° 0.1 mm 6 mps 741 mmHg 76%
    20:00 +15°C° 0.1 mm 5 mps 741 mmHg 79%
    21:00 +14°C° 0 mm 4 mps 741 mmHg 81%
    22:00 +13°C° 0 mm 4 mps 742 mmHg 83%
    23:00 +12°C° 0 mm 3 mps 742 mmHg 85%

    29 June, Saturday

    Time Temperature Precipitation Wind Pressure Humidity
    00:00 +11°C° 0 mm 3 mps 742 mmHg 86%
    01:00 +10°C° 0 mm 3 mps 742 mmHg 87%
    02:00 +10°C° 0 mm 3 mps 742 mmHg 89%
    03:00 +8°C° 0 mm 4 mps 742 mmHg 90%
    04:00 +8°C° 0 mm 4 mps 743 mmHg 91%
    05:00 +8°C° 0 mm 4 mps 743 mmHg 92%
    06:00 +10°C° 0 mm 4 mps 743 mmHg 87%
    07:00 +10°C° 0 mm 5 mps 743 mmHg 83%
    08:00 +12°C° 0 mm 5 mps 743 mmHg 79%
    09:00 +13°C° 0 mm 5 mps 744 mmHg 74%
    10:00 +14°C° 0 mm 5 mps 744 mmHg 69%
    11:00 +15°C° 0 mm 6 mps 744 mmHg 65%
    12:00 +16°C° 0 mm 6 mps 744 mmHg 61%
    13:00 +17°C° 0 mm 6 mps 744 mmHg 58%
    14:00 +17°C° 0 mm 6 mps 744 mmHg 55%
    15:00 +17°C° 0 mm 6 mps 744 mmHg 58%
    16:00 +17°C° 0 mm 5 mps 744 mmHg 61%
    17:00 +17°C° 0 mm 5 mps 743 mmHg 65%
    18:00 +17°C° 0 mm 4 mps 743 mmHg 70%
    19:00 +16°C° 0 mm 3 mps 743 mmHg 76%
    20:00 +14°C° 0 mm 3 mps 743 mmHg 82%
    21:00 +14°C° 0 mm 3 mps 743 mmHg 82%
    22:00 +13°C° 0 mm 3 mps 743 mmHg 82%
    23:00 +12°C° 0 mm 3 mps 743 mmHg 82%

    30 June, Sunday

    Time Temperature Precipitation Wind Pressure Humidity
    00:00 +12°C° 0 mm 3 mps 743 mmHg 79%
    01:00 +13°C° 0 mm 3 mps 743 mmHg 76%
    02:00 +13°C° 0 mm 3 mps 743 mmHg 73%
    03:00 +13°C° 0 mm 3 mps 743 mmHg 72%
    04:00 +14°C° 0 mm 4 mps 742 mmHg 71%
    05:00 +14°C° 0 mm 4 mps 742 mmHg 69%
    06:00 +15°C° 0 mm 4 mps 742 mmHg 71%
    07:00 +17°C° 0 mm 5 mps 742 mmHg 72%
    08:00 +19°C° 0 mm 6 mps 742 mmHg 74%
    09:00 +20°C° 0 mm 6 mps 743 mmHg 70%
    10:00 +22°C° 0 mm 6 mps 743 mmHg 66%
    11:00 +23°C° 0 mm 6 mps 743 mmHg 63%
    12:00 +25°C° 0 mm 5 mps 743 mmHg 62%
    13:00 +25°C° 0 mm 5 mps 742 mmHg 61%
    14:00 +26°C° 0 mm 5 mps 742 mmHg 60%
    15:00 +26°C° 0 mm 4 mps 742 mmHg 61%
    16:00 +26°C° 0 mm 4 mps 742 mmHg 63%
    17:00 +27°C° 0 mm 4 mps 742 mmHg 64%
    18:00 +25°C° 0 mm 3 mps 742 mmHg 69%
    19:00 +24°C° 0 mm 3 mps 742 mmHg 74%
    20:00 +21°C° 0 mm 2 mps 741 mmHg 78%
    21:00 +20°C° 0 mm 2 mps 741 mmHg 79%
    22:00 +19°C° 0 mm 3 mps 741 mmHg 80%
    23:00 +18°C° 0 mm 3 mps 741 mmHg 81%
    Show more